DLH4VV LSZH-EDDM

Flight info

Callsign DLH4VV
Flight time 0h 36m
Altitude 22000
Route DEGES Z6 NUNRI/N0387F210 T103 BETOS BETOS1B
Aircraft A321/M-SDE3FGHIRWY/LB1

Departure

Time 2026-05-06 16:49
Airport Zürich Airport (LSZH)

Arrival

Time 2026-05-06 17:26
Airport Munich Airport (EDDM)
Time Latitude Longitude Altitude Speed Heading
2026-05-06 15:51 47.45586 8.55685 1407 ft 0 kts
2026-05-06 15:57 47.45585 8.55685 1407 ft 0 kts
2026-05-06 16:10 47.45584 8.55685 1407 ft 0 kts
2026-05-06 16:26 47.45583 8.55685 1407 ft 0 kts
2026-05-06 16:43 47.45582 8.55685 1407 ft 0 kts
2026-05-06 16:45 47.45604 8.55688 1413 ft 7 kts
2026-05-06 16:45 47.45645 8.55726 1412 ft 8 kts 81°
2026-05-06 16:45 47.45642 8.55805 1411 ft 8 kts 94°
2026-05-06 16:45 47.45637 8.55892 1409 ft 11 kts 95°
2026-05-06 16:46 47.45626 8.56036 1410 ft 15 kts 97°
2026-05-06 16:46 47.45614 8.56194 1414 ft 16 kts 96°
2026-05-06 16:46 47.45603 8.56355 1419 ft 16 kts 96°
2026-05-06 16:46 47.45591 8.56518 1417 ft 16 kts 96°
2026-05-06 16:47 47.45581 8.56677 1422 ft 15 kts 96°
2026-05-06 16:47 47.45570 8.56831 1420 ft 15 kts 96°
2026-05-06 16:47 47.45574 8.56985 1421 ft 15 kts 58°
2026-05-06 16:47 47.45653 8.56996 1425 ft 13 kts 316°
2026-05-06 16:48 47.45669 8.56920 1424 ft 0 kts 278°
2026-05-06 16:48 47.45669 8.56914 1423 ft 3 kts 278°
2026-05-06 16:48 47.45691 8.56621 1419 ft 67 kts 275°
2026-05-06 16:49 47.45763 8.55583 1411 ft 135 kts 276°
2026-05-06 16:49 47.45879 8.53952 1591 ft 170 kts 275°
2026-05-06 16:49 47.45999 8.52229 2411 ft 168 kts 274°
2026-05-06 16:49 47.46089 8.50460 2947 ft 181 kts 272°
2026-05-06 16:50 47.46164 8.48500 3239 ft 199 kts 264°
2026-05-06 16:50 47.45646 8.46583 3751 ft 206 kts 241°
2026-05-06 16:50 47.44986 8.44759 4620 ft 204 kts 242°
2026-05-06 16:50 47.44529 8.43514 5184 ft 204 kts 242°
2026-05-06 16:51 47.43629 8.41056 6192 ft 206 kts 242°
2026-05-06 16:51 47.42949 8.39175 6931 ft 209 kts 240°
2026-05-06 16:51 47.41981 8.37577 7625 ft 214 kts 213°
2026-05-06 16:51 47.40945 8.36968 8153 ft 218 kts 192°
2026-05-06 16:52 47.39421 8.37192 8853 ft 230 kts 161°
2026-05-06 16:52 47.38150 8.38699 9509 ft 246 kts 127°
2026-05-06 16:52 47.37667 8.41170 10129 ft 262 kts 89°
2026-05-06 16:52 47.38257 8.43721 10728 ft 270 kts 54°
2026-05-06 16:53 47.39409 8.45922 11340 ft 274 kts 53°
2026-05-06 16:53 47.40288 8.48508 11524 ft 294 kts 80°
2026-05-06 16:53 47.40458 8.51594 11694 ft 314 kts 91°
2026-05-06 16:53 47.40502 8.54931 11829 ft 336 kts 91°
2026-05-06 16:54 47.40537 8.58491 11961 ft 357 kts 91°
2026-05-06 16:54 47.40573 8.62260 12093 ft 377 kts 91°
2026-05-06 16:54 47.40617 8.66221 12226 ft 395 kts 91°
2026-05-06 16:54 47.40673 8.70356 12357 ft 411 kts 91°
2026-05-06 16:55 47.40736 8.74630 12640 ft 421 kts 90°
2026-05-06 16:55 47.40760 8.78982 18034 ft 429 kts 94°
2026-05-06 16:55 47.40776 8.83451 18175 ft 440 kts 92°
2026-05-06 16:55 47.40834 8.88016 18358 ft 448 kts 92°
2026-05-06 16:56 47.40916 8.92636 18690 ft 452 kts 92°
2026-05-06 16:56 47.41003 8.97286 19065 ft 455 kts 92°
2026-05-06 16:56 47.41082 9.01964 19424 ft 457 kts 92°
2026-05-06 16:56 47.41141 9.06666 19790 ft 460 kts 92°
2026-05-06 16:57 47.41188 9.11395 20167 ft 462 kts 93°
2026-05-06 16:57 47.41409 9.16154 20512 ft 468 kts 85°
2026-05-06 16:57 47.42117 9.20879 20811 ft 476 kts 76°
2026-05-06 16:57 47.43333 9.25454 21120 ft 484 kts 66°
2026-05-06 16:58 47.44984 9.29815 21513 ft 487 kts 63°
2026-05-06 16:58 47.46660 9.34089 21723 ft 492 kts 63°
2026-05-06 16:58 47.48379 9.38499 21885 ft 497 kts 63°
2026-05-06 16:58 47.50101 9.42947 22123 ft 500 kts 63°
2026-05-06 16:59 47.51828 9.47426 22377 ft 502 kts 63°
2026-05-06 16:59 47.53556 9.51925 22621 ft 504 kts 63°
2026-05-06 16:59 47.55286 9.56449 22847 ft 505 kts 64°
2026-05-06 16:59 47.56749 9.61159 23037 ft 503 kts 73°
2026-05-06 17:00 47.57736 9.66120 23181 ft 500 kts 82°
2026-05-06 17:00 47.58119 9.69469 23279 ft 498 kts 87°
2026-05-06 17:00 47.58294 9.74580 23391 ft 495 kts 95°
2026-05-06 17:00 47.58121 9.79578 23308 ft 475 kts 98°
2026-05-06 17:01 47.57934 9.84359 23171 ft 454 kts 98°
2026-05-06 17:01 47.57756 9.88864 22904 ft 422 kts 98°
2026-05-06 17:01 47.57589 9.93039 22623 ft 391 kts 98°
2026-05-06 17:01 47.57432 9.96912 22317 ft 365 kts 99°
2026-05-06 17:02 47.57276 10.00587 21934 ft 353 kts 99°
2026-05-06 17:02 47.57116 10.04166 21857 ft 341 kts 99°
2026-05-06 17:02 47.56965 10.07577 21873 ft 332 kts 99°
2026-05-06 17:02 47.56813 10.10971 21876 ft 329 kts 99°
2026-05-06 17:03 47.56660 10.14349 21891 ft 329 kts 99°
2026-05-06 17:03 47.56509 10.17722 21879 ft 328 kts 99°
2026-05-06 17:03 47.56359 10.21084 21887 ft 328 kts 99°
2026-05-06 17:03 47.56208 10.24454 21881 ft 328 kts 99°
2026-05-06 17:04 47.56057 10.27824 21877 ft 328 kts 99°
2026-05-06 17:04 47.55904 10.31194 21869 ft 328 kts 99°
2026-05-06 17:04 47.55751 10.34564 21870 ft 328 kts 99°
2026-05-06 17:04 47.55598 10.37934 21869 ft 328 kts 99°
2026-05-06 17:05 47.55443 10.41308 21873 ft 329 kts 99°
2026-05-06 17:05 47.55289 10.44681 21855 ft 328 kts 99°
2026-05-06 17:05 47.55205 10.48068 21855 ft 331 kts 94°
2026-05-06 17:05 47.55362 10.51480 21841 ft 335 kts 87°
2026-05-06 17:06 47.55762 10.54849 21858 ft 339 kts 81°
2026-05-06 17:06 47.56419 10.58215 21868 ft 342 kts 74°
2026-05-06 17:06 47.57328 10.61485 21840 ft 344 kts 67°
2026-05-06 17:06 47.58481 10.64604 21839 ft 347 kts 62°
2026-05-06 17:07 47.59725 10.67663 21843 ft 347 kts 62°
2026-05-06 17:07 47.60963 10.70728 21840 ft 347 kts 62°
2026-05-06 17:07 47.62195 10.73799 21840 ft 347 kts 62°
2026-05-06 17:07 47.63425 10.76874 21837 ft 347 kts 62°
2026-05-06 17:08 47.64653 10.79946 21825 ft 346 kts 62°
2026-05-06 17:08 47.65883 10.83021 21826 ft 346 kts 62°
2026-05-06 17:08 47.67178 10.86039 21826 ft 348 kts 57°
2026-05-06 17:08 47.68676 10.88861 21829 ft 349 kts 50°
2026-05-06 17:09 47.70368 10.91455 21832 ft 350 kts 44°
2026-05-06 17:09 47.72229 10.93786 21824 ft 350 kts 40°
2026-05-06 17:09 47.74139 10.96032 21823 ft 350 kts 40°
2026-05-06 17:09 47.76038 10.98282 21823 ft 349 kts 40°
2026-05-06 17:10 47.77935 11.00537 21823 ft 350 kts 40°
2026-05-06 17:10 47.79836 11.02798 21818 ft 351 kts 39°
2026-05-06 17:10 47.81750 11.05082 21862 ft 354 kts 39°
2026-05-06 17:10 47.83618 11.07316 21859 ft 354 kts 39°
2026-05-06 17:11 47.85538 11.09611 21862 ft 354 kts 39°
2026-05-06 17:11 47.87473 11.11923 21514 ft 363 kts 39°
2026-05-06 17:11 47.89584 11.14438 20465 ft 412 kts 39°
2026-05-06 17:11 47.91907 11.17201 19339 ft 441 kts 38°
2026-05-06 17:12 47.94376 11.20140 18190 ft 463 kts 38°
2026-05-06 17:12 47.96899 11.23144 17265 ft 460 kts 38°
2026-05-06 17:12 47.99376 11.26089 16439 ft 453 kts 38°
2026-05-06 17:12 48.01826 11.28999 15607 ft 447 kts 38°
2026-05-06 17:13 48.04246 11.31877 14818 ft 442 kts 38°
2026-05-06 17:13 48.06642 11.34724 14056 ft 437 kts 39°
2026-05-06 17:13 48.08756 11.37927 13309 ft 431 kts 55°
2026-05-06 17:13 48.10092 11.41848 12749 ft 415 kts 73°
2026-05-06 17:14 48.10962 11.45846 12612 ft 394 kts 74°
2026-05-06 17:14 48.11784 11.49670 12275 ft 381 kts 74°
2026-05-06 17:14 48.12577 11.53361 11718 ft 375 kts 74°
2026-05-06 17:14 48.13367 11.57055 11140 ft 371 kts 74°
2026-05-06 17:15 48.14155 11.60762 10874 ft 369 kts 74°
2026-05-06 17:15 48.14923 11.64385 10445 ft 368 kts 74°
2026-05-06 17:15 48.15690 11.68012 10005 ft 362 kts 75°
2026-05-06 17:15 48.16446 11.71570 9556 ft 355 kts 74°
2026-05-06 17:16 48.17186 11.75057 9082 ft 348 kts 74°
2026-05-06 17:16 48.17909 11.78490 8598 ft 343 kts 74°
2026-05-06 17:16 48.18614 11.81877 8154 ft 338 kts 75°
2026-05-06 17:16 48.19302 11.85214 7700 ft 333 kts 75°
2026-05-06 17:17 48.19976 11.88513 7267 ft 328 kts 75°
2026-05-06 17:17 48.20636 11.91726 6970 ft 318 kts 74°
2026-05-06 17:17 48.21273 11.94857 6674 ft 310 kts 75°
2026-05-06 17:17 48.21894 11.97903 6389 ft 302 kts 75°
2026-05-06 17:18 48.22497 12.00851 6086 ft 287 kts 73°
2026-05-06 17:18 48.23067 12.03694 5784 ft 282 kts 74°
2026-05-06 17:18 48.23623 12.06491 5484 ft 278 kts 75°
2026-05-06 17:18 48.24189 12.09232 5172 ft 273 kts 72°
2026-05-06 17:19 48.25108 12.11677 4882 ft 271 kts 48°
2026-05-06 17:19 48.26668 12.13191 4634 ft 269 kts 20°
2026-05-06 17:19 48.28444 12.13937 4452 ft 260 kts 15°
2026-05-06 17:19 48.30166 12.14557 4322 ft 249 kts 14°
2026-05-06 17:20 48.31818 12.15142 4190 ft 239 kts 14°
2026-05-06 17:20 48.33423 12.15442 4073 ft 228 kts 353°
2026-05-06 17:20 48.34816 12.14552 3982 ft 213 kts 317°
2026-05-06 17:20 48.35636 12.12836 3952 ft 194 kts 297°
2026-05-06 17:21 48.36201 12.11111 3979 ft 174 kts 294°
2026-05-06 17:21 48.36704 12.09553 3977 ft 159 kts 293°
2026-05-06 17:21 48.37086 12.07834 4008 ft 189 kts 268°
2026-05-06 17:21 48.36633 12.05931 4009 ft 202 kts 240°
2026-05-06 17:22 48.36152 12.03960 3977 ft 203 kts 266°
2026-05-06 17:22 48.36090 12.01824 3985 ft 204 kts 264°
2026-05-06 17:22 48.35938 11.99749 3986 ft 198 kts 263°
2026-05-06 17:22 48.35789 11.97802 3931 ft 179 kts 263°
2026-05-06 17:23 48.35650 11.95957 3595 ft 176 kts 263°
2026-05-06 17:23 48.35514 11.94158 3340 ft 170 kts 264°
2026-05-06 17:23 48.35385 11.92440 3138 ft 160 kts 264°
2026-05-06 17:23 48.35263 11.90822 2900 ft 152 kts 263°
2026-05-06 17:24 48.35149 11.89311 2706 ft 138 kts 263°
2026-05-06 17:24 48.35043 11.87906 2506 ft 134 kts 263°
2026-05-06 17:24 48.34936 11.86490 2321 ft 136 kts 262°
2026-05-06 17:24 48.34830 11.85094 2123 ft 132 kts 262°
2026-05-06 17:25 48.34724 11.83701 1937 ft 137 kts 263°
2026-05-06 17:25 48.34613 11.82240 1757 ft 142 kts 263°
2026-05-06 17:25 48.34501 11.80761 1575 ft 142 kts 263°
2026-05-06 17:25 48.34411 11.79593 1478 ft 131 kts 263°
2026-05-06 17:26 48.34345 11.78725 1483 ft 53 kts 263°
2026-05-06 17:26 48.34315 11.78326 1486 ft 36 kts 263°
2026-05-06 17:26 48.34326 11.77971 1478 ft 33 kts 287°
2026-05-06 17:26 48.34379 11.77775 1456 ft 17 kts 294°
2026-05-06 17:27 48.34427 11.77608 1474 ft 18 kts 293°
2026-05-06 17:27 48.34493 11.77449 1485 ft 18 kts 328°
2026-05-06 17:27 48.34613 11.77447 1473 ft 17 kts 31°
2026-05-06 17:27 48.34642 11.77619 1485 ft 18 kts 84°
2026-05-06 17:28 48.34656 11.77810 1481 ft 19 kts 84°
2026-05-06 17:28 48.34670 11.78013 1485 ft 20 kts 83°
2026-05-06 17:28 48.34688 11.78227 1485 ft 21 kts 83°
2026-05-06 17:28 48.34707 11.78451 1485 ft 22 kts 83°
2026-05-06 17:29 48.34726 11.78686 1473 ft 23 kts 83°
2026-05-06 17:29 48.34745 11.78931 1485 ft 24 kts 83°
2026-05-06 17:29 48.34764 11.79187 1485 ft 25 kts 84°
2026-05-06 17:29 48.34783 11.79453 1472 ft 26 kts 84°
2026-05-06 17:30 48.34806 11.79664 1480 ft 18 kts 60°
2026-05-06 17:30 48.34889 11.79688 1478 ft 0 kts 355°
2026-05-06 17:30 48.34894 11.79687 1481 ft 1 kts 355°
2026-05-06 17:30 48.34905 11.79685 1482 ft 1 kts 355°
2026-05-06 17:31 48.34917 11.79684 1486 ft 3 kts 355°
2026-05-06 17:31 48.34942 11.79681 1475 ft 5 kts 355°
2026-05-06 17:31 48.34984 11.79674 1485 ft 9 kts 354°
2026-05-06 17:31 48.35051 11.79660 1475 ft 11 kts 345°
2026-05-06 17:32 48.35108 11.79592 1481 ft 11 kts 325°
2026-05-06 17:32 48.35187 11.79567 1482 ft 13 kts 353°
2026-05-06 17:32 48.35275 11.79551 1485 ft 9 kts 354°
2026-05-06 17:32 48.35316 11.79487 1484 ft 10 kts 273°
2026-05-06 17:33 48.35310 11.79398 1479 ft 6 kts 263°
2026-05-06 17:33 48.35305 11.79329 1485 ft 7 kts 263°
2026-05-06 17:33 48.35304 11.79316 1485 ft 0 kts 263°
2026-05-06 17:33 48.35305 11.79324 1485 ft 0 kts 263°
2026-05-06 17:34 48.35355 11.79331 1474 ft 0 kts 263°
2026-05-06 17:35 48.35355 11.79332 1474 ft 0 kts 263°